| time (UTC) | temp C | wind direction | speed KPH | gust KPH | rain 1hr cm | rain 24hr cm | rain mn cm | humidity % | barometer mb |
| 20260505022123 | 14 | 270 | 0.0 | 0.0 | 0.00 | 0.00 | 0.00 | 88 | 1009.1 |
| 20260505021512 | 14 | 270 | 0.0 | 0.0 | 0.00 | 0.00 | 0.00 | 88 | 1009.1 |
| 20260505020926 | 14 | 248 | 0.0 | 0.0 | 0.00 | 0.00 | 0.00 | 88 | 1009.4 |
| 20260505020317 | 15 | 270 | 0.0 | 0.0 | 0.00 | 0.00 | 0.00 | 86 | 1009.4 |
| 20260505015154 | 16 | 68 | 0.0 | 0.0 | 0.00 | 0.00 | 0.00 | 80 | 1009.4 |
| 20260505014530 | 16 | 68 | 0.0 | 0.0 | 0.00 | 0.00 | 0.00 | 80 | 1009.4 |
| 20260505013918 | 16 | 135 | 0.0 | 0.0 | 0.00 | 0.00 | 0.00 | 80 | 1009.4 |
| 20260505013318 | 16 | 90 | 0.0 | 0.0 | 0.00 | 0.00 | 0.00 | 79 | 1009.1 |
| 20260505012711 | 17 | 113 | 0.0 | 0.0 | 0.00 | 0.00 | 0.00 | 76 | 1009.1 |
| 20260505012147 | 17 | 113 | 0.0 | 0.0 | 0.00 | 0.00 | 0.00 | 76 | 1009.4 |
| 20260505011536 | 18 | 135 | 0.0 | 0.0 | 0.00 | 0.00 | 0.00 | 71 | 1009.1 |
| 20260505010914 | 18 | 180 | 0.0 | 0.0 | 0.00 | 0.00 | 0.00 | 72 | 1009.1 |
| 20260505010331 | 18 | 225 | 0.0 | 1.6 | 0.00 | 0.00 | 0.00 | 70 | 1009.1 |
| 20260505005751 | 19 | 158 | 0.0 | 3.2 | 0.00 | 0.00 | 0.00 | 69 | 1009.1 |
| 20260505005121 | 20 | 113 | 0.0 | 0.0 | 0.00 | 0.00 | 0.00 | 68 | 1009.1 |
| 20260505004534 | 20 | 180 | 1.6 | 1.6 | 0.00 | 0.00 | 0.00 | 67 | 1009.1 |
| 20260505003929 | 20 | 180 | 3.2 | 4.8 | 0.00 | 0.00 | 0.00 | 67 | 1009.1 |
| 20260505003354 | 20 | 180 | 1.6 | 3.2 | 0.00 | 0.00 | 0.00 | 66 | 1009.1 |
| 20260505002111 | 21 | 180 | 3.2 | 4.8 | 0.00 | 0.00 | 0.00 | 60 | 1009.1 |
| 20260505001513 | 21 | 270 | 0.0 | 6.4 | 0.00 | 0.00 | 0.00 | 61 | 1009.1 |
| 20260505000916 | 21 | 225 | 3.2 | 6.4 | 0.00 | 0.00 | 0.00 | 58 | 1009.1 |
| 20260505000318 | 21 | 203 | 4.8 | 6.4 | 0.00 | 0.00 | 0.00 | 57 | 1008.8 |
| 20260504235715 | 21 | 203 | 4.8 | 9.7 | 0.00 | 0.00 | 0.00 | 58 | 1008.8 |
| 20260504234528 | 22 | 158 | 4.8 | 4.8 | 0.00 | 0.00 | 0.00 | 58 | 1008.8 |
| 20260504233933 | 23 | 270 | 3.2 | 14.5 | 0.00 | 0.00 | 0.00 | 55 | 1008.8 |
| 20260504233341 | 24 | 23 | 0.0 | 4.8 | 0.00 | 0.00 | 0.00 | 57 | 1008.8 |
| 20260504232715 | 22 | 90 | 0.0 | 9.7 | 0.00 | 0.00 | 0.00 | 58 | 1008.4 |
| 20260504232153 | 22 | 135 | 0.0 | 3.2 | 0.00 | 0.00 | 0.00 | 60 | 1008.4 |
| 20260504231519 | 22 | 270 | 8.0 | 8.0 | 0.00 | 0.00 | 0.00 | 59 | 1008.4 |
| 20260504230952 | 22 | 248 | 4.8 | 16.1 | 0.00 | 0.00 | 0.00 | 60 | 1008.4 |
| 20260504225715 | 23 | 225 | 1.6 | 3.2 | 0.00 | 0.00 | 0.00 | 58 | 1008.4 |
| 20260504225147 | 23 | 270 | 6.4 | 8.0 | 0.00 | 0.00 | 0.00 | 56 | 1008.4 |
| 20260504224511 | 23 | 248 | 0.0 | 4.8 | 0.00 | 0.00 | 0.00 | 58 | 1008.4 |
| 20260504223935 | 22 | 270 | 3.2 | 8.0 | 0.00 | 0.00 | 0.00 | 56 | 1008.8 |
| 20260504223316 | 22 | 270 | 6.4 | 9.7 | 0.00 | 0.00 | 0.00 | 55 | 1008.8 |
| 20260504222753 | 23 | 248 | 8.0 | 12.9 | 0.00 | 0.00 | 0.00 | 52 | 1008.8 |
| 20260504222112 | 23 | 270 | 8.0 | 14.5 | 0.00 | 0.00 | 0.00 | 54 | 1008.8 |
| 20260504221522 | 23 | 270 | 9.7 | 16.1 | 0.00 | 0.00 | 0.00 | 54 | 1009.1 |
| 20260504220927 | 23 | 270 | 9.7 | 12.9 | 0.00 | 0.00 | 0.00 | 52 | 1008.8 |
| 20260504220316 | 23 | 270 | 16.1 | 16.1 | 0.00 | 0.00 | 0.00 | 53 | 1008.8 |
| 20260504215123 | 23 | 270 | 9.7 | 19.3 | 0.00 | 0.00 | 0.00 | 55 | 1008.4 |
| 20260504214552 | 23 | 270 | 16.1 | 16.1 | 0.00 | 0.00 | 0.00 | 55 | 1008.4 |
| 20260504213951 | 23 | 270 | 9.7 | 14.5 | 0.00 | 0.00 | 0.00 | 53 | 1008.4 |
| 20260504211528 | 22 | 225 | 6.4 | 16.1 | 0.00 | 0.00 | 0.00 | 54 | 1008.8 |
| 20260504210950 | 23 | 203 | 6.4 | 6.4 | 0.00 | 0.00 | 0.00 | 54 | 1008.4 |
| 20260504210330 | 23 | 270 | 14.5 | 17.7 | 0.00 | 0.00 | 0.00 | 54 | 1008.4 |
| 20260504205734 | 23 | 270 | 12.9 | 25.7 | 0.00 | 0.00 | 0.00 | 53 | 1008.4 |
| 20260504205140 | 23 | 248 | 14.5 | 16.1 | 0.00 | 0.00 | 0.00 | 53 | 1008.4 |
| 20260504204542 | 23 | 293 | 11.3 | 17.7 | 0.00 | 0.00 | 0.00 | 52 | 1008.4 |
| 20260504203932 | 24 | 270 | 12.9 | 20.9 | 0.00 | 0.00 | 0.00 | 51 | 1008.4 |
| 20260504202734 | 24 | 180 | 6.4 | 16.1 | 0.00 | 0.00 | 0.00 | 51 | 1008.8 |
| 20260504202114 | 23 | 225 | 4.8 | 14.5 | 0.00 | 0.00 | 0.00 | 53 | 1008.4 |
| 20260504201541 | 23 | 248 | 11.3 | 11.3 | 0.00 | 0.00 | 0.00 | 52 | 1008.4 |
| 20260504200320 | 23 | 270 | 12.9 | 12.9 | 0.00 | 0.00 | 0.00 | 52 | 1008.8 |
| 20260504195752 | 23 | 270 | 8.0 | 9.7 | 0.00 | 0.00 | 0.00 | 53 | 1008.4 |
| 20260504195125 | 23 | 270 | 11.3 | 19.3 | 0.00 | 0.00 | 0.00 | 51 | 1008.4 |
| 20260504194552 | 24 | 248 | 16.1 | 16.1 | 0.00 | 0.00 | 0.00 | 52 | 1008.4 |
| 20260504193936 | 24 | 225 | 4.8 | 4.8 | 0.00 | 0.00 | 0.00 | 53 | 1008.4 |
| 20260504193338 | 23 | 270 | 12.9 | 12.9 | 0.00 | 0.00 | 0.00 | 51 | 1008.4 |
| 20260504192722 | 23 | 270 | 4.8 | 12.9 | 0.00 | 0.00 | 0.00 | 53 | 1008.8 |
| 20260504192139 | 23 | 248 | 14.5 | 17.7 | 0.00 | 0.00 | 0.00 | 52 | 1009.1 |
| 20260504191533 | 23 | 270 | 6.4 | 14.5 | 0.00 | 0.00 | 0.00 | 53 | 1009.1 |
| 20260504190949 | 23 | 248 | 11.3 | 24.1 | 0.00 | 0.00 | 0.00 | 52 | 1009.1 |
| 20260504185733 | 23 | 180 | 4.8 | 6.4 | 0.00 | 0.00 | 0.00 | 53 | 1009.4 |
| 20260504184535 | 23 | 270 | 11.3 | 25.7 | 0.00 | 0.00 | 0.00 | 53 | 1009.4 |
| 20260504183943 | 23 | 23 | 3.2 | 9.7 | 0.00 | 0.00 | 0.00 | 54 | 1009.4 |
| 20260504183329 | 22 | 68 | 4.8 | 19.3 | 0.00 | 0.00 | 0.00 | 55 | 1009.8 |
| 20260504182741 | 22 | 270 | 9.7 | 24.1 | 0.00 | 0.00 | 0.00 | 55 | 1009.8 |
| 20260504182142 | 22 | 270 | 12.9 | 12.9 | 0.00 | 0.00 | 0.00 | 57 | 1009.8 |
| 20260504181512 | 22 | 225 | 8.0 | 19.3 | 0.00 | 0.00 | 0.00 | 56 | 1009.8 |
| 20260504180923 | 22 | 248 | 22.5 | 25.7 | 0.00 | 0.00 | 0.00 | 56 | 1010.1 |
| 20260504180320 | 22 | 225 | 14.5 | 20.9 | 0.00 | 0.00 | 0.00 | 56 | 1010.1 |
| 20260504175748 | 22 | 270 | 12.9 | 25.7 | 0.00 | 0.00 | 0.00 | 57 | 1010.1 |
| 20260504174534 | 21 | 270 | 16.1 | 24.1 | 0.00 | 0.00 | 0.00 | 56 | 1010.1 |
| 20260504173931 | 22 | 248 | 4.8 | 11.3 | 0.00 | 0.00 | 0.00 | 59 | 1010.1 |
| 20260504172713 | 21 | 293 | 12.9 | 16.1 | 0.00 | 0.00 | 0.00 | 58 | 1010.4 |
| 20260504172134 | 21 | 248 | 9.7 | 19.3 | 0.00 | 0.00 | 0.00 | 58 | 1010.8 |
| 20260504171554 | 21 | 270 | 17.7 | 24.1 | 0.00 | 0.00 | 0.00 | 58 | 1010.8 |
| 20260504170919 | 21 | 270 | 8.0 | 19.3 | 0.00 | 0.00 | 0.00 | 57 | 1010.8 |
| 20260504170335 | 21 | 270 | 14.5 | 19.3 | 0.00 | 0.00 | 0.00 | 58 | 1010.8 |
| 20260504160347 | 21 | 248 | 22.5 | 22.5 | 0.00 | 0.00 | 0.00 | 57 | 1011.5 |
| 20260504141236 | 18 | 270 | 11.3 | 11.3 | 0.00 | 0.00 | 0.00 | 55 | 1012.1 |
| 20260504140653 | 18 | 270 | 11.3 | 20.9 | 0.00 | 0.00 | 0.00 | 54 | 1012.1 |
| 20260504130633 | 17 | 225 | 8.0 | 9.7 | 0.00 | 0.00 | 0.00 | 57 | 1012.1 |
| 20260504110627 | 8 | 270 | 0.0 | 0.0 | 0.00 | 0.00 | 0.00 | 98 | 1012.8 |
| 20260504081815 | 8 | 113 | 0.0 | 3.2 | 0.00 | 0.00 | 0.00 | 95 | 1013.8 |
| 20260504081216 | 7 | 248 | 0.0 | 0.0 | 0.00 | 0.00 | 0.00 | 94 | 1013.8 |
| 20260504080626 | 8 | 270 | 0.0 | 0.0 | 0.00 | 0.00 | 0.00 | 91 | 1013.8 |
| 20260504045417 | 7 | 270 | 0.0 | 0.0 | 0.00 | 0.00 | 0.00 | 86 | 1014.5 |
| 20260504044831 | 7 | 270 | 0.0 | 0.0 | 0.00 | 0.00 | 0.00 | 87 | 1014.5 |
| 20260504044221 | 7 | 270 | 0.0 | 0.0 | 0.00 | 0.00 | 0.00 | 87 | 1014.5 |
| 20260504043642 | 7 | 270 | 0.0 | 0.0 | 0.00 | 0.00 | 0.00 | 86 | 1014.5 |
| 20260504043048 | 7 | 270 | 0.0 | 0.0 | 0.00 | 0.00 | 0.00 | 85 | 1014.5 |
| 20260504042431 | 7 | 270 | 0.0 | 0.0 | 0.00 | 0.00 | 0.00 | 87 | 1014.5 |
| 20260504041228 | 7 | 270 | 0.0 | 0.0 | 0.00 | 0.00 | 0.00 | 85 | 1014.2 |
| 20260504040644 | 7 | 270 | 0.0 | 0.0 | 0.00 | 0.00 | 0.00 | 85 | 1014.5 |
| 20260504040030 | 7 | 270 | 0.0 | 0.0 | 0.00 | 0.00 | 0.00 | 85 | 1014.5 |
| 20260504035428 | 7 | 293 | 0.0 | 0.0 | 0.00 | 0.00 | 0.00 | 87 | 1014.2 |
| 20260504034215 | 7 | 270 | 0.0 | 0.0 | 0.00 | 0.00 | 0.00 | 88 | 1014.2 |
| 20260504033612 | 7 | 293 | 0.0 | 0.0 | 0.00 | 0.00 | 0.00 | 85 | 1014.5 |
| 20260504033036 | 7 | 293 | 0.0 | 0.0 | 0.00 | 0.00 | 0.00 | 85 | 1014.5 |
| 20260504031244 | 6 | 270 | 0.0 | 0.0 | 0.00 | 0.00 | 0.00 | 88 | 1014.5 |
| 20260504030018 | 6 | 270 | 0.0 | 0.0 | 0.00 | 0.00 | 0.00 | 88 | 1014.5 |
| 20260504025414 | 6 | 270 | 0.0 | 0.0 | 0.00 | 0.00 | 0.00 | 87 | 1014.5 |
| 20260504024824 | 6 | 270 | 0.0 | 0.0 | 0.00 | 0.00 | 0.00 | 85 | 1014.5 |
| 20260504024220 | 6 | 270 | 0.0 | 0.0 | 0.00 | 0.00 | 0.00 | 85 | 1014.5 |
| 20260504023633 | 6 | 270 | 0.0 | 0.0 | 0.00 | 0.00 | 0.00 | 85 | 1014.5 |